Location: Unspecified
(0.0000°N, 0.0000°E)
Time: 03:57:45
(UTC+00:00)

Tiangong 2 - Pass Details

Date: 16 June 2019
Orbit: 376 x 388 km, 42.8° (Epoch: 26 June)

Event Time Altitude Azimuth Distance (km) Brightness Sun altitude
Exits shadow 05:06:02 20° 272° (W) 965 2.5 -12.5°
Maximum altitude 05:07:26 28° 315° (NW) 759 2.3 -12.2°
Drops below altitude 10° 05:10:11 10° 16° (NNE) 1,395 4.5 -11.6°
Sets 05:12:26 0° 29° (NNE) 2,247 5.9 -11.0°
